Weather History for KISN - March, 2013

Change the Weather History Date:

Thursday, March 28, 2013

  Actual Average Record
Temperature  
Mean Temperature 22 °F 35 °F  
Max Temperature 34 °F 47 °F 79 °F (2015)
Min Temperature 9 °F 23 °F -17 °F (1898)
Degree Days  
Heating Degree Days 43 30  
Month to date heating degree days 1339 1020  
Since 1 July heating degree days 7927 7788  
Cooling Degree Days 0 0  
Month to date cooling degree days 0 0  
Year to date cooling degree days 0 0  
Moisture  
Dew Point 15 °F    
Average Humidity 89    
Maximum Humidity 100    
Minimum Humidity 78    
Precipitation  
Precipitation 0.00 in 0.02 in 0.64 in (1896)
Month to date precipitation 1.35 0.63  
Year to date precipitation 1.92 1.61  
Snow  
Snow 0.00 in 0.10 in 8.60 in (1936)
Month to date snowfall 16.1 5.7  
Snow Depth 6.00 in    
Sea Level Pressure  
Sea Level Pressure 30.20 in    
Wind  
Wind Speed 5 mph (NE)    
Max Wind Speed 8 mph    
Max Gust Speed 9 mph    
Visibility 3 miles    
Events Fog    
T = Trace of Precipitation, MM = Missing Value Source: NWS Daily Summary

Daily Weather History Graph

Daily Weather History Graph

Search for Another Location

Airport or City:

Trip Planner

Search our weather history database for the weather conditions in past years. The results will help you decide how hot, cold, wet, or windy it might be!

Date:

Astronomy

Mar. 28, 2013 Rise Set
Actual Time 7:40 AM CDT 8:19 PM CDT
Civil Twilight 7:08 AM CDT 8:50 PM CDT
Nautical Twilight 6:31 AM CDT 9:28 PM CDT
Astronomical Twilight 5:52 AM CDT 10:07 PM CDT
Moon 10:26 PM CDT (3/28) 8:00 AM CDT (3/28)
Length of Visible Light 13h 41m
Length of Day
12h 39m
Full, 98% of the Moon is Illuminated
Mar 28
Full
Apr 2
Last Quarter
Apr 10
New
Apr 18
First Quarter
Apr 25
Full

Hourly Weather History & Observations

Time (CDT) Temp. Windchill Dew Point Humidity Pressure Visibility Wind Dir Wind Speed Gust Speed Precip Events Conditions
12:52 AM 14.0 °F 6.5 °F 12.9 °F 95% 30.24 in 6.0 mi NE 4.6 mph - N/A   Clear
1:52 AM 12.9 °F 5.2 °F 10.9 °F 92% 30.23 in 5.0 mi NE 4.6 mph - N/A   Clear
2:34 AM 10.4 °F 4.0 °F 8.6 °F 92% 30.13 in 6.0 mi NE 3.5 mph - N/A   Scattered Clouds
2:43 AM 10.4 °F 2.2 °F 8.6 °F 92% 30.13 in 5.0 mi ENE 4.6 mph - N/A   Mostly Cloudy
2:52 AM 10.0 °F 0.4 °F 9.0 °F 95% 30.24 in 3.0 mi ENE 5.8 mph - N/A   Mostly Cloudy
3:02 AM 10.4 °F 2.2 °F 8.6 °F 92% 30.13 in 2.5 mi NE 4.6 mph - N/A   Mostly Cloudy
3:09 AM 10.4 °F 0.8 °F 8.6 °F 92% 30.14 in 2.5 mi NE 5.8 mph - N/A   Scattered Clouds
3:15 AM 10.4 °F 2.2 °F 8.6 °F 92% 30.14 in 1.8 mi NE 4.6 mph - N/A   Mostly Cloudy
3:20 AM 10.4 °F 0.8 °F 8.6 °F 92% 30.14 in 0.8 mi NE 5.8 mph - N/A   Mist
3:27 AM 10.4 °F 0.8 °F 8.6 °F 92% 30.14 in 0.5 mi NE 5.8 mph - N/A Fog Light Freezing Fog
3:52 AM 10.0 °F 0.4 °F 9.0 °F 95% 30.24 in 0.5 mi NE 5.8 mph - N/A Fog Light Freezing Fog
4:15 AM 10.4 °F 2.2 °F 10.4 °F 100% 30.13 in 0.2 mi NE 4.6 mph - N/A Fog Light Freezing Fog
4:33 AM 10.4 °F -0.4 °F 8.6 °F 92% 30.13 in 0.5 mi NE 6.9 mph - N/A Fog Light Freezing Fog
4:52 AM 9.0 °F -2.2 °F 9.0 °F 100% 30.23 in 0.5 mi NE 6.9 mph - N/A Fog Light Freezing Fog
5:02 AM 8.6 °F -3.7 °F 8.6 °F 100% 30.12 in 0.5 mi NE 8.1 mph - N/A Fog Light Freezing Fog
5:19 AM 8.6 °F -4.7 °F 8.6 °F 100% 30.12 in 1.0 mi NE 9.2 mph - N/A   Overcast
5:46 AM 8.6 °F -3.7 °F 8.6 °F 100% 30.12 in 2.0 mi NE 8.1 mph - N/A   Overcast
5:52 AM 9.0 °F -0.9 °F 8.1 °F 96% 30.23 in 2.5 mi NE 5.8 mph - N/A   Overcast
5:58 AM 8.6 °F -1.3 °F 8.6 °F 100% 30.12 in 3.0 mi NE 5.8 mph - N/A   Overcast
6:10 AM 10.4 °F 2.2 °F 8.6 °F 92% 30.12 in 2.5 mi NNE 4.6 mph - N/A   Overcast
6:32 AM 8.6 °F -2.6 °F 8.6 °F 100% 30.12 in 3.0 mi NE 6.9 mph - N/A   Overcast
6:46 AM 8.6 °F -3.7 °F 8.6 °F 100% 30.12 in 2.5 mi NE 8.1 mph - N/A   Overcast
6:52 AM 9.0 °F -2.2 °F 8.1 °F 96% 30.23 in 2.0 mi NE 6.9 mph - N/A   Overcast
7:10 AM 8.6 °F -3.7 °F 8.6 °F 100% 30.13 in 1.5 mi NE 8.1 mph - N/A   Overcast
7:52 AM 8.6 °F -2.6 °F 8.6 °F 100% 30.14 in 0.8 mi ENE 6.9 mph - N/A   Overcast
8:52 AM 10.9 °F 2.9 °F 10.0 °F 96% 30.27 in 0.2 mi NE 4.6 mph - N/A Fog Light Freezing Fog
9:08 AM 10.4 °F 2.2 °F 10.4 °F 100% 30.15 in 0.2 mi NE 4.6 mph - N/A Fog Light Freezing Fog
9:28 AM 10.4 °F 0.8 °F 10.4 °F 100% 30.16 in 0.2 mi NE 5.8 mph - N/A Fog Light Freezing Fog
9:52 AM 12.0 °F 4.1 °F 10.9 °F 95% 30.28 in 0.2 mi NNE 4.6 mph - N/A Fog Light Freezing Fog
10:06 AM 12.2 °F 2.9 °F 10.4 °F 92% 30.16 in 0.5 mi NE 5.8 mph - N/A Fog Light Freezing Fog
10:32 AM 15.8 °F 7.2 °F 14.0 °F 93% 30.16 in 1.2 mi NNE 5.8 mph - N/A   Overcast
10:44 AM 15.8 °F 7.2 °F 15.8 °F 100% 30.16 in 2.0 mi NNE 5.8 mph - N/A   Overcast
10:52 AM 17.1 °F 10.0 °F 16.0 °F 96% 30.28 in 2.5 mi NNE 4.6 mph - N/A   Overcast
11:00 AM 17.6 °F 10.7 °F 17.6 °F 100% 30.17 in 2.5 mi NE 4.6 mph - N/A   Overcast
11:14 AM 17.6 °F 9.3 °F 15.8 °F 93% 30.17 in 1.8 mi NE 5.8 mph - N/A   Overcast
11:31 AM 19.4 °F 12.8 °F 17.6 °F 93% 30.17 in 0.5 mi NE 4.6 mph - N/A Fog Light Freezing Fog
11:46 AM 19.4 °F 12.8 °F 17.6 °F 93% 30.17 in 1.0 mi NE 4.6 mph - N/A   Overcast
11:52 AM 19.9 °F 12.1 °F 18.0 °F 92% 30.29 in 1.0 mi NE 5.8 mph - N/A   Overcast
12:25 PM 21.2 °F 16.4 °F 19.4 °F 93% 30.17 in 2.0 mi NNE 3.5 mph - N/A   Overcast
12:31 PM 23.0 °F 18.4 °F 19.4 °F 86% 30.17 in 1.2 mi NNE 3.5 mph - N/A   Overcast
12:42 PM 24.8 °F 20.5 °F 19.4 °F 80% 30.18 in 2.5 mi NNE 3.5 mph - N/A   Overcast
12:52 PM 24.1 °F 19.7 °F 19.9 °F 84% 30.29 in 2.5 mi NNE 3.5 mph - N/A   Overcast
12:58 PM 24.8 °F 20.5 °F 19.4 °F 80% 30.18 in 3.0 mi NNE 3.5 mph - N/A   Overcast
1:17 PM 24.8 °F 17.9 °F 21.2 °F 86% 30.17 in 4.0 mi NNE 5.8 mph - N/A   Scattered Clouds
1:52 PM 25.0 °F 19.3 °F 21.9 °F 88% 30.28 in 4.0 mi NE 4.6 mph - N/A   Clear
2:52 PM 28.0 °F 21.7 °F 24.1 °F 85% 30.27 in 5.0 mi NNE 5.8 mph - N/A   Clear
3:52 PM 30.9 °F 24.3 °F 25.0 °F 79% 30.25 in 6.0 mi NE 6.9 mph - N/A   Haze
4:52 PM 32.0 °F 25.6 °F 28.0 °F 85% 30.24 in 6.0 mi North 6.9 mph - N/A   Clear
5:52 PM 34.0 °F 28.8 °F 28.0 °F 79% 30.24 in 6.0 mi NE 5.8 mph - N/A   Haze
6:52 PM 32.0 °F 24.8 °F 28.0 °F 85% 30.25 in 6.0 mi North 8.1 mph - N/A   Clear
7:52 PM 28.9 °F 22.8 °F 26.1 °F 89% 30.25 in 5.0 mi North 5.8 mph - N/A   Clear
8:52 PM 27.0 °F 23.0 °F 24.1 °F 89% 30.25 in 5.0 mi NE 3.5 mph - N/A   Clear
9:52 PM 24.1 °F 19.7 °F 21.9 °F 91% 30.26 in 4.0 mi NE 3.5 mph - N/A   Clear
10:52 PM 21.9 °F - 19.9 °F 92% 30.25 in 4.0 mi Calm Calm - N/A   Clear
11:52 PM 19.9 °F 14.9 °F 18.0 °F 92% 30.25 in 4.0 mi NNE 3.5 mph - N/A   Clear